| time (UTC) | temp F | wind direction | speed knots | gust knots | rain 1hr in | rain 24hr in | rain mn in | humidity % | barometer mb |
| 20260504081528 | 36 | 304 | 24.3 | 41.7 | 0.01 | 0.91 | 0.13 | 94 | 982.9 |
| 20260504060107 | 38 | 262 | 13.0 | 24.3 | 0.02 | 0.87 | 0.09 | 97 | 978.3 |
| 20260504044544 | 39 | 256 | 10.4 | 19.1 | 0.03 | 0.84 | 0.06 | 97 | 976.3 |
| 20260504043052 | 38 | 257 | 9.6 | 15.6 | 0.04 | 0.83 | 0.06 | 97 | 975.7 |
| 20260504041538 | 38 | 271 | 9.6 | 17.4 | 0.03 | 0.82 | 0.04 | 97 | 974.9 |
| 20260504040035 | 38 | 264 | 6.1 | 13.0 | 0.03 | 0.81 | 0.03 | 97 | 974.3 |
| 20260504034536 | 38 | 305 | 7.8 | 10.4 | 0.04 | 0.81 | 0.03 | 97 | 973.8 |
| 20260504033030 | 39 | 344 | 2.6 | 5.2 | 0.03 | 0.80 | 0.02 | 97 | 973.5 |
| 20260504031528 | 38 | 56 | 4.3 | 9.6 | 0.03 | 0.79 | 0.01 | 97 | 973.5 |
| 20260504030026 | 38 | 68 | 8.7 | 19.1 | 0.02 | 0.78 | 0.78 | 97 | 973.6 |
| 20260504024524 | 38 | 78 | 12.2 | 22.6 | 0.02 | 0.77 | 0.77 | 97 | 974.1 |
| 20260504023020 | 39 | 108 | 13.0 | 20.0 | 0.02 | 0.76 | 0.76 | 97 | 974.9 |
| 20260504021518 | 39 | 100 | 17.4 | 22.6 | 0.01 | 0.76 | 0.76 | 97 | 976.0 |
| 20260504020015 | 39 | 95 | 15.6 | 22.6 | 0.01 | 0.76 | 0.76 | 96 | 976.6 |
| 20260504014510 | 40 | 107 | 15.6 | 22.6 | 0.00 | 0.75 | 0.75 | 96 | 977.8 |
| 20260504013006 | 41 | 85 | 19.1 | 25.2 | 0.01 | 0.75 | 0.75 | 96 | 978.2 |
| 20260504011503 | 41 | 118 | 15.6 | 26.1 | 0.02 | 0.75 | 0.75 | 97 | 978.9 |
| 20260504010100 | 42 | 112 | 19.1 | 26.1 | 0.03 | 0.75 | 0.75 | 97 | 979.7 |
| 20260504004557 | 42 | 83 | 15.6 | 28.7 | 0.06 | 0.75 | 0.75 | 97 | 980.4 |
| 20260504003054 | 41 | 67 | 18.2 | 31.3 | 0.06 | 0.74 | 0.74 | 97 | 980.8 |
| 20260504001553 | 41 | 82 | 16.5 | 28.7 | 0.07 | 0.72 | 0.72 | 97 | 981.7 |
| 20260504000052 | 41 | 76 | 20.9 | 31.3 | 0.07 | 0.72 | 0.72 | 97 | 982.2 |
| 20260503234546 | 41 | 101 | 17.4 | 33.9 | 0.09 | 0.69 | 0.69 | 97 | 983.2 |
| 20260503233043 | 41 | 81 | 18.2 | 27.8 | 0.16 | 0.68 | 0.68 | 97 | 983.9 |
| 20260503231540 | 40 | 65 | 18.2 | 33.9 | 0.20 | 0.65 | 0.65 | 97 | 984.7 |
| 20260503230038 | 39 | 54 | 19.1 | 30.4 | 0.24 | 0.65 | 0.65 | 96 | 985.6 |
| 20260503224536 | 39 | 42 | 20.9 | 31.3 | 0.24 | 0.60 | 0.60 | 96 | 986.1 |
| 20260503223033 | 38 | 55 | 15.6 | 31.3 | 0.22 | 0.52 | 0.52 | 96 | 987.5 |
| 20260503221532 | 39 | 69 | 17.4 | 32.2 | 0.21 | 0.46 | 0.46 | 96 | 988.2 |
| 20260503220026 | 39 | 54 | 17.4 | 28.7 | 0.22 | 0.40 | 0.40 | 96 | 989.4 |
| 20260503214537 | 39 | 66 | 14.8 | 26.9 | 0.21 | 0.35 | 0.35 | 95 | 990.9 |
| 20260503213019 | 39 | 79 | 13.0 | 23.5 | 0.17 | 0.30 | 0.30 | 95 | 991.6 |
| 20260503211515 | 39 | 96 | 13.9 | 26.1 | 0.13 | 0.24 | 0.24 | 95 | 992.7 |
| 20260503210013 | 40 | 81 | 15.6 | 26.9 | 0.10 | 0.18 | 0.18 | 95 | 993.4 |
| 20260503204512 | 40 | 59 | 19.1 | 31.3 | 0.08 | 0.14 | 0.14 | 94 | 993.3 |
| 20260503203010 | 41 | 85 | 20.0 | 31.3 | 0.08 | 0.13 | 0.13 | 94 | 994.0 |
| 20260503201507 | 42 | 88 | 18.2 | 26.1 | 0.08 | 0.11 | 0.11 | 94 | 994.6 |
| 20260503200004 | 42 | 91 | 16.5 | 26.1 | 0.06 | 0.08 | 0.08 | 94 | 995.7 |
| 20260503194502 | 43 | 68 | 14.8 | 26.1 | 0.06 | 0.06 | 0.06 | 93 | 995.7 |
| 20260503193104 | 43 | 87 | 16.5 | 23.5 | 0.05 | 0.05 | 0.05 | 92 | 997.0 |
| 20260503191605 | 43 | 68 | 13.0 | 21.7 | 0.03 | 0.03 | 0.03 | 91 | 997.2 |
| 20260503190055 | 44 | 87 | 14.8 | 19.1 | 0.02 | 0.02 | 0.02 | 88 | 998.5 |
| 20260503184600 | 44 | 46 | 11.3 | 26.1 | 0.00 | 0.00 | 0.00 | 85 | 998.7 |
| 20260503183048 | 44 | 27 | 16.5 | 24.3 | 0.00 | 0.00 | 0.00 | 84 | 999.0 |
| 20260503181607 | 43 | 67 | 13.0 | 26.9 | 0.00 | 0.00 | 0.00 | 85 | 1000.5 |
| 20260503180050 | 42 | 42 | 13.0 | 23.5 | 0.00 | 0.00 | 0.00 | 88 | 1001.5 |
| 20260503174545 | 42 | 57 | 18.2 | 23.5 | 0.00 | 0.00 | 0.00 | 87 | 1001.8 |
| 20260503173046 | 42 | 44 | 19.1 | 24.3 | 0.00 | 0.00 | 0.00 | 87 | 1002.2 |
| 20260503171530 | 41 | 50 | 14.8 | 21.7 | 0.00 | 0.00 | 0.00 | 88 | 1004.2 |